CAPE
737 789 881 814 617 292 120 48 4 0 1 0 0 0 0 0 0 0 0 0 0 0 0 98 236 203 223 169 167 153 133 145 105 39 0 0 0 0 0 0 0 0 0
851 792 787 794 627 314 289 83 48 20 0 0 0 0 0 0 0 0 0 0 0 0 0 0 87 154 244 157 158 160 102 103 165 74 0 0 0 0 0 0 0 0 0
634 503 664 682 593 555 256 125 48 21 43 1 0 0 0 0 0 0 0 0 0 0 0 0 66 121 168 246 217 202 146 146 221 109 0 0 0 0 0 0 0 0 0
552 484 137 413 529 523 429 233 70 99 11 2 0 0 0 0 0 0 0 0 0 0 0 0 45 128 206 241 281 258 176 245 359 165 0 0 0 0 0 0 0 0 0
77 230 284 252 360 426 338 264 132 27 43 10 7 0 0 0 0 0 0 0 0 11 35 22 14 20 98 204 178 165 119 136 280 243 11 0 0 0 0 0 0 0 0
19 48 112 196 237 428 403 272 227 129 55 63 1 6 0 8 0 5 2 0 1 46 81 86 83 45 17 84 107 106 76 94 309 261 64 0 0 0 0 0 2 1 0
74 71 110 178 258 319 266 176 187 191 50 53 80 4 1 13 19 43 29 40 68 85 99 101 94 93 73 46 62 72 123 106 152 321 168 28 0 0 0 3 18 14 8
70 97 110 107 206 146 187 144 165 128 80 32 23 9 0 0 26 67 74 81 97 110 92 120 115 106 129 103 57 49 93 185 127 383 223 63 11 2 5 32 40 25 16
109 114 97 127 218 79 49 92 44 61 33 36 26 31 14 0 16 35 50 74 79 104 125 137 150 146 102 80 50 52 35 163 400 383 316 144 56 44 66 45 45 35 28
103 102 137 81 51 27 57 76 41 72 63 23 49 34 20 12 26 0 30 65 89 130 108 139 96 63 62 72 83 39 6 75 128 317 247 221 135 113 82 64 52 52 26
155 190 175 66 14 88 26 84 45 47 53 76 83 57 41 13 0 3 0 70 76 83 59 71 66 60 76 66 64 27 6 4 19 92 195 138 126 120 72 74 74 44 7
160 189 167 138 97 28 60 46 66 65 61 42 53 21 8 13 1 0 13 90 90 60 76 57 43 33 34 29 20 15 14 19 4 20 19 6 57 27 47 47 39 3 4
210 180 160 92 27 61 35 40 27 3 19 34 68 10 4 21 51 18 62 50 40 16 17 8 12 16 8 15 15 5 16 6 4 9 7 3 3 0 20 55 7 0 0
128 172 154 89 59 11 26 2 4 7 18 20 3 4 63 67 48 45 15 0 0 4 5 8 8 6 7 21 12 4 3 3 22 7 3 3 3 0 0 2 7 0 0
207 175 141 55 42 41 29 10 12 1 9 15 0 46 42 43 36 43 45 54 50 0 0 5 27 5 6 7 0 3 1 0 1 0 0 1 1 0 0 0 0 0 0
35 32 42 18 14 24 8 8 20 42 32 44 47 41 33 38 43 35 28 35 24 0 2 8 8 9 8 4 8 2 5 9 4 1 3 1 8 0 0 0 0 0 0
5 15 8 4 6 10 19 14 37 39 30 49 52 45 38 27 19 12 12 0 12 20 8 1 3 0 0 8 1 0 5 4 3 4 3 4 4 4 0 0 0 0 0
18 25 18 14 14 10 3 23 18 21 0 2 12 2 15 19 18 9 14 15 13 6 3 1 0 0 0 0 1 0 8 23 30 9 11 2 3 0 3 0 0 0 0
0 0 1 4 1 0 6 0 1 6 0 6 6 13 6 4 0 0 0 0 0 0 0 6 1 3 2 4 9 10 5 20 20 5 8 4 4 3 3 2 0 0 0
0 0 0 0 0 0 0 0 0 0 0 0 0 0 0 0 0 0 0 0 0 0 0 0 1 2 5 4 15 19 16 26 40 42 5 26 31 7 3 3 1 1 0
0 0 0 0 0 0 0 0 0 0 0 0 0 0 0 0 0 0 0 0 0 0 0 0 0 0 0 0 0 3 1 14 10 12 15 4 0 2 1 1 1 0 0
0 0 0 0 0 0 0 0 0 0 0 0 0 0 0 0 0 0 0 0 0 0 0 0 0 0 12 10 0 0 5 7 25 0 16 1 23 0 1 0 3 1 0
0 0 0 0 0 0 0 0 0 0 0 0 0 0 0 0 0 0 0 0 0 0 0 0 0 0 0 6 24 7 15 15 12 10 12 18 10 5 1 5 1 4 0
0 0 0 0 0 0 0 0 0 0 0 0 0 0 0 0 0 0 0 0 0 0 0 0 0 8 6 6 9 18 14 17 3 3 12 57 23 19 5 0 0 1 0
0 0 0 0 0 0 0 0 0 0 0 0 0 0 0 0 0 0 0 0 0 0 0 13 27 15 1 1 6 17 9 32 8 17 13 1 0 55 21 19 0 0 0
0 0 0 0 0 0 0 0 0 0 0 0 0 0 0 0 0 0 0 0 0 0 0 0 12 15 4 0 6 9 26 38 42 11 0 6 0 22 0 2 4 0 0
CIN
-0 -0 -0 -0 -0 -0 -20 -2 -0 -0 -0 -0 -0 -0 -0 -0 -0 -0 -0 -0 -0 -0 -0 -12 -45 -45 -73 -4 -1 -2 -2 -0 -0 -0 -0 -0 -0 -0 -0 -0 -0 -0 -0
-0 -0 -0 -0 -0 -7 -5 -5 -2 -0 -0 -0 -0 -0 -0 -0 -0 -0 -0 -0 -0 -0 -0 -0 -20 -11 -55 -3 -2 -7 -8 -3 -0 -0 -0 -0 -0 -0 -0 -0 -0 -0 -0
-0 -0 -0 -0 -1 -0 -32 -67 -5 -4 -0 -0 -0 -0 -0 -0 -0 -0 -0 -0 -0 -0 -0 -0 -37 -22 -15 -55 -5 -46 -0 -1 -35 -0 -0 -0 -0 -0 -0 -0 -0 -0 -0
-0 -0 -15 -0 -0 -0 -0 -46 -26 -5 -28 -30 -0 -0 -0 -0 -0 -0 -0 -0 -0 -0 -0 -0 -92 -43 -22 -11 -40 -71 -0 -0 -4 -3 -0 -0 -0 -0 -0 -0 -0 -0 -0
-33 -4 -4 -4 -0 -0 -3 -2 -6 -45 -33 -38 -101 -0 -0 -0 -0 -0 -0 -0 -0 -25 -20 -41 -29 -97 -83 -35 -25 -14 -8 -0 -0 -4 -22 -0 -0 -0 -0 -0 -0 -0 -0
-99 -54 -27 -14 -2 -0 -1 -7 -0 -4 -9 -17 -81 -1 -38 -77 -0 -39 -28 -0 -3 -38 -26 -30 -33 -39 -38 -97 -59 -41 -34 -12 -0 -0 -15 -0 -0 -0 -0 -0 -0 -0 -0
-58 -48 -39 -23 -12 -1 -2 -1 -0 -0 -2 -0 -0 -20 -44 -77 -79 -50 -71 -44 -35 -30 -25 -39 -40 -41 -34 -33 -154 -96 -58 -32 -4 -0 -8 -19 -0 -0 -0 -0 -0 -0 -0
-73 -50 -50 -46 -16 -26 -17 -17 -0 -0 -0 -1 -3 -2 -0 -0 -25 -37 -37 -40 -44 -40 -66 -72 -31 -39 -70 -75 -20 -27 -104 -31 -26 -0 -0 -11 -41 -0 -0 -0 -0 -0 -0
-66 -52 -48 -27 -7 -20 -22 -8 -6 -1 -1 -0 -0 -0 -0 -0 -12 -71 -94 -55 -113 -62 -73 -44 -37 -37 -38 -38 -40 -43 -81 -48 -6 -0 -0 -0 -11 -11 -2 -2 -0 -0 -0
-53 -46 -32 -25 -27 -0 -0 -0 -0 -0 -4 -0 -0 -0 -7 -6 -12 -0 -84 -34 -28 -39 -61 -43 -47 -39 -32 -42 -40 -51 -165 -85 -66 -0 -3 -0 -0 -0 -0 -0 -0 -0 -0
-34 -21 -17 -26 -2 -20 -0 -0 -0 -0 -0 -0 -0 -0 -2 -0 -0 -0 -0 -12 -18 -40 -34 -10 -81 -40 -52 -81 -41 -5 -29 -78 -111 -6 -0 -0 -0 -1 -0 -0 -0 -0 -0
-22 -10 -24 -22 -2 -2 -0 -0 -0 -0 -1 -2 -1 -3 -1 -0 -0 -0 -1 -9 -14 -31 -46 -49 -48 -41 -19 -19 -30 -19 -22 -23 -0 -0 -0 -3 -0 -2 -0 -0 -0 -0 -0
-0 -6 -0 -7 -43 -6 -0 -0 -0 -2 -0 -0 -9 -2 -0 -14 -56 -17 -26 -5 -6 -34 -60 -53 -54 -42 -23 -36 -36 -11 -9 -4 -4 -0 -0 -0 -0 -0 -0 -0 -0 -0 -0
-10 -0 -0 -4 -16 -15 -2 -10 -0 -0 -0 -0 -5 -1 -36 -56 -22 -26 -5 -0 -0 -0 -10 -33 -43 -22 -31 -21 -15 -12 -0 -0 -0 -0 -0 -0 -0 -0 -0 -0 -0 -0 -0
-0 -0 -0 -19 -13 -4 -0 -0 -0 -0 -0 -0 -1 -23 -5 -15 -8 -5 -6 -2 -7 -0 -0 -1 -0 -13 -22 -21 -0 -1 -0 -1 -2 -0 -0 -0 -0 -0 -0 -0 -0 -0 -0
-11 -0 -1 -0 -1 -0 -0 -0 -0 -0 -0 -11 -7 -0 -3 -0 -0 -2 -12 -9 -4 -0 -0 -0 -0 -33 -115 -13 -13 -3 -0 -3 -3 -0 -0 -0 -0 -0 -0 -0 -0 -0 -0
-0 -1 -0 -11 -0 -0 -0 -0 -0 -0 -0 -0 -0 -0 -0 -0 -4 -7 -0 -0 -4 -0 -0 -0 -0 -0 -0 -0 -0 -0 -1 -9 -15 -3 -0 -0 -0 -0 -0 -0 -0 -0 -0
-0 -1 -0 -0 -0 -0 -0 -0 -0 -0 -0 -36 -43 -0 -0 -0 -2 -0 -0 -0 -6 -0 -0 -0 -0 -0 -0 -0 -0 -0 -0 -4 -0 -6 -7 -0 -0 -0 -0 -0 -0 -0 -0
-0 -0 -0 -0 -0 -0 -47 -0 -58 -50 -0 -49 -47 -0 -1 -0 -0 -0 -0 -0 -0 -0 -0 -0 -0 -0 -0 -0 -0 -0 -0 -0 -0 -5 -1 -0 -0 -0 -0 -0 -0 -0 -0
-0 -0 -0 -0 -0 -0 -0 -0 -0 -0 -0 -0 -0 -0 -0 -0 -0 -0 -0 -0 -0 -0 -0 -0 -0 -0 -0 -0 -0 -0 -0 -0 -0 -0 -18 -0 -0 -0 -0 -0 -0 -0 -0
-0 -0 -0 -0 -0 -0 -0 -0 -0 -0 -0 -0 -0 -0 -0 -0 -0 -0 -0 -0 -0 -0 -0 -0 -0 -0 -0 -0 -6 -10 -0 -1 -4 -1 -13 -0 -0 -9 -0 -0 -0 -0 -0
-0 -0 -0 -0 -0 -0 -0 -0 -0 -0 -0 -0 -0 -0 -0 -0 -0 -0 -0 -0 -0 -0 -0 -0 -0 -0 -0 -0 -0 -0 -4 -0 -0 -0 -5 -0 -2 -0 -0 -0 -0 -0 -0
-0 -0 -0 -0 -0 -0 -0 -0 -0 -0 -0 -0 -0 -0 -0 -0 -0 -0 -0 -0 -0 -0 -0 -0 -0 -0 -0 -0 -0 -0 -0 -0 -0 -0 -7 -1 -29 -31 -0 -14 -0 -0 -0
-0 -0 -0 -0 -0 -0 -0 -0 -0 -0 -0 -0 -0 -0 -0 -0 -0 -0 -0 -0 -0 -0 -0 -0 -0 -0 -0 -0 -0 -0 -0 -0 -5 -0 -2 -0 -23 -26 -0 -0 -0 -0 -0
-0 -0 -0 -0 -0 -0 -0 -0 -0 -0 -0 -0 -0 -0 -0 -0 -0 -0 -0 -0 -0 -0 -0 -0 -1 -3 -4 -0 -0 -0 -0 -1 -1 -10 -47 -1 -0 -2 -23 -35 -0 -0 -0
-0 -0 -0 -0 -0 -0 -0 -0 -0 -0 -0 -0 -0 -0 -0 -0 -0 -0 -0 -0 -0 -0 -0 -0 -0 -0 -1 -0 -4 -0 -2 -0 -2 -10 -0 -2 -0 -5 -0 -3 -37 -0 -0
Wind_Speed
28 30 28 29 31 35 36 nan nan nan nan nan nan nan nan nan nan nan nan nan nan nan nan nan 21 24 27 26 25 25 27 28 31 nan nan nan nan nan nan nan nan nan nan
29 28 27 30 31 32 36 nan nan nan nan nan nan nan nan nan nan nan nan nan nan nan nan nan nan 24 27 28 27 28 31 31 35 nan nan nan nan nan nan nan nan nan nan
32 27 24 27 29 28 33 35 nan nan nan nan nan nan nan nan nan nan nan nan nan nan nan nan nan 26 27 30 29 31 31 32 34 38 nan nan nan nan nan nan nan nan nan
34 33 36 30 31 28 29 34 nan nan nan nan nan nan nan nan nan nan nan nan nan nan nan nan nan 29 31 31 32 32 31 33 35 37 nan nan nan nan nan nan nan nan nan
nan 38 36 36 32 35 34 36 38 nan nan nan nan nan nan nan nan nan nan nan nan nan nan nan nan nan nan 36 34 32 30 33 34 41 nan nan nan nan nan nan nan nan nan
nan nan 39 37 38 39 38 39 37 40 nan nan nan nan nan nan nan nan nan nan nan nan nan nan nan nan nan nan 39 35 nan nan 38 45 nan nan nan nan nan nan nan nan nan
nan nan 46 44 42 42 41 40 41 38 nan nan nan nan nan nan nan nan nan nan nan nan nan 41 nan nan nan nan nan nan 36 40 45 50 51 nan nan nan nan nan nan nan nan
nan nan 50 46 43 46 43 43 45 47 nan nan nan nan nan nan nan nan nan nan nan 49 nan 48 47 45 50 54 nan nan nan 44 49 51 44 nan nan nan nan nan nan nan nan
53 50 nan 47 45 nan nan nan nan nan nan nan nan nan nan nan nan nan nan nan nan 52 55 55 48 49 49 nan nan nan nan 41 34 35 32 34 nan nan nan nan nan nan nan
49 48 45 nan nan nan nan nan nan nan nan nan nan nan nan nan nan nan nan nan nan 56 59 62 nan nan nan nan nan nan nan nan 34 31 34 36 38 37 nan nan nan nan nan
50 48 46 nan nan nan nan nan nan nan nan nan nan nan nan nan nan nan nan nan nan nan nan nan nan nan nan nan nan nan nan nan nan nan 40 40 38 33 nan nan nan nan nan
52 47 46 47 nan nan nan nan nan nan nan nan nan nan nan nan nan nan nan nan nan nan nan nan nan nan nan nan nan nan nan nan nan nan nan nan nan nan nan nan nan nan nan
50 48 47 nan nan nan nan nan nan nan nan nan nan nan nan nan nan nan nan nan nan nan nan nan nan nan nan nan nan nan nan nan nan nan nan nan nan nan nan nan nan nan nan
38 37 39 nan nan nan nan nan nan nan nan nan nan nan nan nan nan nan nan nan nan nan nan nan nan nan nan nan nan nan nan nan nan nan nan nan nan nan nan nan nan nan nan
33 35 38 nan nan nan nan nan nan nan nan nan nan nan nan nan nan nan nan nan nan nan nan nan nan nan nan nan nan nan nan nan nan nan nan nan nan nan nan nan nan nan nan
nan nan nan nan nan nan nan nan nan nan nan nan nan nan nan nan nan nan nan nan nan nan nan nan nan nan nan nan nan nan nan nan nan nan nan nan nan nan nan nan nan nan nan
nan nan nan nan nan nan nan nan nan nan nan nan nan nan nan nan nan nan nan nan nan nan nan nan nan nan nan nan nan nan nan nan nan nan nan nan nan nan nan nan nan nan nan
nan nan nan nan nan nan nan nan nan nan nan nan nan nan nan nan nan nan nan nan nan nan nan nan nan nan nan nan nan nan nan nan nan nan nan nan nan nan nan nan nan nan nan
nan nan nan nan nan nan nan nan nan nan nan nan nan nan nan nan nan nan nan nan nan nan nan nan nan nan nan nan nan nan nan nan nan nan nan nan nan nan nan nan nan nan nan
nan nan nan nan nan nan nan nan nan nan nan nan nan nan nan nan nan nan nan nan nan nan nan nan nan nan nan nan nan nan nan nan nan nan nan nan nan nan nan nan nan nan nan
nan nan nan nan nan nan nan nan nan nan nan nan nan nan nan nan nan nan nan nan nan nan nan nan nan nan nan nan nan nan nan nan nan nan nan nan nan nan nan nan nan nan nan
nan nan nan nan nan nan nan nan nan nan nan nan nan nan nan nan nan nan nan nan nan nan nan nan nan nan nan nan nan nan nan nan nan nan nan nan nan nan nan nan nan nan nan
nan nan nan nan nan nan nan nan nan nan nan nan nan nan nan nan nan nan nan nan nan nan nan nan nan nan nan nan nan nan nan nan nan nan nan nan nan nan nan nan nan nan nan
nan nan nan nan nan nan nan nan nan nan nan nan nan nan nan nan nan nan nan nan nan nan nan nan nan nan nan nan nan nan nan nan nan nan nan nan nan nan nan nan nan nan nan
nan nan nan nan nan nan nan nan nan nan nan nan nan nan nan nan nan nan nan nan nan nan nan nan nan nan nan nan nan nan nan nan nan nan nan nan nan nan nan nan nan nan nan
nan nan nan nan nan nan nan nan nan nan nan nan nan nan nan nan nan nan nan nan nan nan nan nan nan nan nan nan nan nan nan nan nan nan nan nan nan nan nan nan nan nan nan
Wind_Direction
265 265 269 266 269 271 267 nan nan nan nan nan nan nan nan nan nan nan nan nan nan nan nan nan 275 280 291 291 295 296 300 300 311 nan nan nan nan nan nan nan nan nan nan
259 260 262 267 265 268 268 nan nan nan nan nan nan nan nan nan nan nan nan nan nan nan nan nan nan 276 283 288 287 287 290 294 309 nan nan nan nan nan nan nan nan nan nan
247 255 253 256 265 272 272 269 nan nan nan nan nan nan nan nan nan nan nan nan nan nan nan nan nan 285 283 286 290 289 290 290 303 309 nan nan nan nan nan nan nan nan nan
250 250 250 255 254 260 270 274 nan nan nan nan nan nan nan nan nan nan nan nan nan nan nan nan nan 289 288 288 287 287 289 290 301 309 nan nan nan nan nan nan nan nan nan
nan 252 253 253 257 259 266 274 274 nan nan nan nan nan nan nan nan nan nan nan nan nan nan nan nan nan nan 287 288 288 288 291 294 310 nan nan nan nan nan nan nan nan nan
nan nan 253 257 254 256 262 269 276 277 nan nan nan nan nan nan nan nan nan nan nan nan nan nan nan nan nan nan 282 283 nan nan 294 305 nan nan nan nan nan nan nan nan nan
nan nan 251 254 257 259 266 270 273 285 nan nan nan nan nan nan nan nan nan nan nan nan nan 273 nan nan nan nan nan nan 277 286 296 304 306 nan nan nan nan nan nan nan nan
nan nan 254 257 262 260 267 272 275 277 nan nan nan nan nan nan nan nan nan nan nan 266 nan 272 274 273 271 272 nan nan nan 282 304 305 310 nan nan nan nan nan nan nan nan
249 253 nan 257 259 nan nan nan nan nan nan nan nan nan nan nan nan nan nan nan nan 263 269 267 268 273 275 nan nan nan nan 287 307 311 313 318 nan nan nan nan nan nan nan
248 252 254 nan nan nan nan nan nan nan nan nan nan nan nan nan nan nan nan nan nan 278 282 268 nan nan nan nan nan nan nan nan 297 310 314 314 312 311 nan nan nan nan nan
248 250 257 nan nan nan nan nan nan nan nan nan nan nan nan nan nan nan nan nan nan nan nan nan nan nan nan nan nan nan nan nan nan nan 310 306 307 309 nan nan nan nan nan
247 251 256 259 nan nan nan nan nan nan nan nan nan nan nan nan nan nan nan nan nan nan nan nan nan nan nan nan nan nan nan nan nan nan nan nan nan nan nan nan nan nan nan
247 251 255 nan nan nan nan nan nan nan nan nan nan nan nan nan nan nan nan nan nan nan nan nan nan nan nan nan nan nan nan nan nan nan nan nan nan nan nan nan nan nan nan
248 247 253 nan nan nan nan nan nan nan nan nan nan nan nan nan nan nan nan nan nan nan nan nan nan nan nan nan nan nan nan nan nan nan nan nan nan nan nan nan nan nan nan
240 243 250 nan nan nan nan nan nan nan nan nan nan nan nan nan nan nan nan nan nan nan nan nan nan nan nan nan nan nan nan nan nan nan nan nan nan nan nan nan nan nan nan
nan nan nan nan nan nan nan nan nan nan nan nan nan nan nan nan nan nan nan nan nan nan nan nan nan nan nan nan nan nan nan nan nan nan nan nan nan nan nan nan nan nan nan
nan nan nan nan nan nan nan nan nan nan nan nan nan nan nan nan nan nan nan nan nan nan nan nan nan nan nan nan nan nan nan nan nan nan nan nan nan nan nan nan nan nan nan
nan nan nan nan nan nan nan nan nan nan nan nan nan nan nan nan nan nan nan nan nan nan nan nan nan nan nan nan nan nan nan nan nan nan nan nan nan nan nan nan nan nan nan
nan nan nan nan nan nan nan nan nan nan nan nan nan nan nan nan nan nan nan nan nan nan nan nan nan nan nan nan nan nan nan nan nan nan nan nan nan nan nan nan nan nan nan
nan nan nan nan nan nan nan nan nan nan nan nan nan nan nan nan nan nan nan nan nan nan nan nan nan nan nan nan nan nan nan nan nan nan nan nan nan nan nan nan nan nan nan
nan nan nan nan nan nan nan nan nan nan nan nan nan nan nan nan nan nan nan nan nan nan nan nan nan nan nan nan nan nan nan nan nan nan nan nan nan nan nan nan nan nan nan
nan nan nan nan nan nan nan nan nan nan nan nan nan nan nan nan nan nan nan nan nan nan nan nan nan nan nan nan nan nan nan nan nan nan nan nan nan nan nan nan nan nan nan
nan nan nan nan nan nan nan nan nan nan nan nan nan nan nan nan nan nan nan nan nan nan nan nan nan nan nan nan nan nan nan nan nan nan nan nan nan nan nan nan nan nan nan
nan nan nan nan nan nan nan nan nan nan nan nan nan nan nan nan nan nan nan nan nan nan nan nan nan nan nan nan nan nan nan nan nan nan nan nan nan nan nan nan nan nan nan
nan nan nan nan nan nan nan nan nan nan nan nan nan nan nan nan nan nan nan nan nan nan nan nan nan nan nan nan nan nan nan nan nan nan nan nan nan nan nan nan nan nan nan
nan nan nan nan nan nan nan nan nan nan nan nan nan nan nan nan nan nan nan nan nan nan nan nan nan nan nan nan nan nan nan nan nan nan nan nan nan nan nan nan nan nan nan